Flag for Austria Weather past 2 weeks in Fürstenfeld, Styria, Austria

Now
43 °F

Passing clouds.


Feels Like: 43 °F
Forecast: 28 / 49 °F
Wind: 1 mph from Southeast

Location: Murska Sobota

Current Time: Mar 3, 2015 at 8:41:14 PM

Latest Report: Mar 3, 2015 at 7:00 PM


Visibility: 31 mi

Pressure: 30.26 "Hg

Humidity: 43%

Dew point: 22 °F

Location of FürstenfeldLocation

Historic Weather in Fürstenfeld — Graph

°F

Fürstenfeld temperature yesterday

Maximum temperature yesterday: 53 °F (at 4:00 PM)
Minimum temperature yesterday: 37 °F (at 12:00 AM)
Average temperature yesterday: 47 °F

Past Weeks' High & Low Weather Summary

 TemperatureHumidityPressure
High53 °F (Mar 2, 4:00 PM)98% (Feb 24, 4:00 AM)30.79 "Hg (Feb 24, 4:00 AM)
Low22 °F (Feb 20, 7:00 AM)26% (Mar 3, 4:00 PM)29.66 "Hg (Feb 23, 4:00 PM)
Average40 °F76%30.07 "Hg
* Reported Feb 16 8:00 PM — Mar 3 7:00 PM, Fürstenfeld, Weather by CustomWeather, © 2015

Note: Actual official high and low records may vary slightly from our data, if they occured in-between our weather recording intervals... More about our weather records

Advertising

Fürstenfeld weather history for previous 24 hours

 ConditionsComfort  
Time TempWeatherWind HumidityBarometerVisibility
7:00 PM
Tue, Mar 3
43 °FPassing clouds.1 mph43%30.26 "Hg31 mi
6:00 PM48 °FCool.1 mph32%30.24 "HgN/A
5:00 PM53 °FCool.1 mph31%30.22 "HgN/A
4:00 PM53 °FCool.5 mph26%30.22 "HgN/A
3:00 PM53 °FCool.5 mph33%30.23 "HgN/A
2:00 PM52 °FScattered clouds.6 mph35%30.24 "Hg31 mi
1:00 PM51 °FScattered clouds.6 mph31%30.25 "Hg31 mi
11:00 AM48 °FCool.N/A33%30.27 "HgN/A
10:00 AM47 °FCool.N/A38%30.27 "HgN/A
9:00 AM44 °FQuite cool.N/A53%30.25 "HgN/A
8:00 AM34 °FPassing clouds.1 mph93%30.24 "Hg31 mi
7:00 AM32 °FPassing clouds.1 mph96%30.23 "Hg31 mi
6:00 AM33 °FChilly.1 mph88%30.18 "HgN/A
5:00 AM31 °FChilly.1 mph96%30.16 "HgN/A
4:00 AM33 °FChilly.2 mph96%30.11 "HgN/A
3:00 AM34 °FChilly.3 mph98%30.09 "HgN/A
2:00 AM33 °FChilly.1 mph97%30.05 "HgN/A
1:00 AM35 °FChilly.1 mph97%30.01 "HgN/A
12:00 AM38 °FChilly.2 mph97%29.98 "HgN/A
11:00 PM
Mon, Mar 2
39 °FChilly.2 mph96%29.94 "HgN/A
10:00 PM40 °FQuite cool.1 mph95%29.91 "HgN/A
9:00 PM41 °FQuite cool.2 mph95%29.90 "HgN/A
8:00 PM43 °FQuite cool.1 mph93%29.85 "HgN/A
Weather by CustomWeather, © 2015

See weather overviewHow to use our weather pages